"Pseudo-MPEC" for P10HOx4

Created 2018 Jun 17 17:18:21 UT using Find_Orb

Click here for an explanation of pseudo-MPECs

 
 Astrometry: 
     P10HOx4  C2018 06 14BTAstrometryZ[,E'i143ggv4g2*kTy?#kAGWDie%Kq$,`jtsWblF51
     P10HOx4  C2018 06 14SZZul@!q_!t+BBAe(Fjy$w:nqgK3YYmmT:1t;]4pW?8S[3?c3c=8F51
     P10HOx4  C2018 06 14`1,2x2E2km%yaks(ar_dmxfY1Ov#j-0`v!rgHQf/v9e$U]51QTQ1F51
     P10HOx4  C2018 06 14?aCJo-/)('J*Xj:/]%38=+Nsp%MGjl(RiR!vY0Y;k)y#s92WsIj+F51
     P10HOx4 KC2018 06 14wcWjIG6QS^TV=62/sredacted;13G%E$REMB+%_-\)0]?b7ykV=dJ04
     P10HOx4 KC2018 06 14F)s?:,@s,DK+LG6+,wg5.J/J;.JaAKdJD^+$8k#cP)1g4qU-LYvuJ04
     P10HOx4 KC2018 06 14$F\Cgaak_y0jXH5[1fv-RnK-UxfKN;OOwLp^4bDgrhEt$Z+Dx\Q*J04
     P10HOx4 KC2018 06 15PVk_TX0]M92Kf(cTjaAPg6.Gv,X]*b9PseeGHb1_5Jq`6S$jxe2:691
     P10HOx4 KC2018 06 15oSQWT'c._m!nCp+3U@]L[tY_W$*rN]#+l*oCImD=6F3AYhpnwjN6691
     P10HOx4 ^C2018 06 15.35435816 08 26.888-21 12 47.42         20.77GVNEOCP568
     P10HOx4 ^C2018 06 15.35532216 08 27.622-21 12 50.18         20.44GVNEOCP568
     P10HOx4 |C2018 06 17c+:mWh+ZNwCwalE_d[_wW@si4p3,vHj%CO:qLXn#@:HY$*?Va7vZ807
     P10HOx4 |C2018 06 17d*:'j6)jZbg/855`9U!a4YE-5`EetKPXe1HV:m6V4F3M5H3N#hjk807
     P10HOx4 |C2018 06 17Hiy]*x#XIS7i_EX,[hA[!HqI[yJirL3K/=IfuL?f;]L`o2vNEOCP807

Station data:
(568) Mauna Kea  (N19.826116 W155.472200)  US/Hawaii.
(691) Steward Observatory, Kitt Peak - Spacewatch  (N31.962174 W111.600327)
   US/Arizona.  Observer J. V. Scotti. 0.9-m f/3 reflector + CCD.
(807) Cerro Tololo Observatory, La Serena  (S30.169136 W70.805900)  Chile.
   1.5-m Ritchey-Chrétien.
(F51) Pan-STARRS 1, Haleakala  (N20.707235 W156.255910)  US/Hawaii.
   Observers N. Primak, A. Schultz, S. Watters, J. Thiel, T. Goggia. Measurer
   PS1 Science Consortium. 1.8-m Ritchey-Chrétien + CCD.
(J04) ESA Optical Ground Station, Tenerife  (N28.300924 W16.511830)  Canary
   Islands (Spain).  Observer D. Abreu. Measurers M. Micheli, D. Koschny, E.
   Schwab, M. Busch, A. Knöfel. 1.0-m f/4.4 reflector + CCD.

Orbital elements:  P10HOx4
   Perihelion 2018 Jul 9.419534 +/- 0.0108 TT = 10:04:07 (JD 2458308.919534)
Epoch 2018 Jun 17.0 TT = JDT 2458286.5   Earth MOID: 0.0009   Ma: 0.0206
M 354.16162 +/- 0.056               (J2000 ecliptic)          AutoNEOCP
n   0.26041465 +/- 0.00238          Peri.  210.24884 +/- 0.014
a   2.42861740 +/- 0.0148           Node    81.80170 +/- 0.008
e   0.5867809 +/- 0.00253           Incl.    0.19229 +/- 0.00043
P   3.78                   H 26.8   G  0.15   U  8.7  
q 1.00355097 +/- 3.25e-5    Q 3.85368383 +/- 0.0298
From 14 observations 2018 June 14-17; mean residual 0".29
Residuals in arcseconds: 
180614 F51  .24+  .09-    180614 J04  .27+  .47-    180615 568  .03+  .13-    
180614 F51  .42-  .08+    180614 J04  .09+  .17+    180617 807  .06-  .01-    
180614 F51  .22+  .01+    180615 691  .49-  .05+    180617 807  .08+  .02-    
180614 F51  .26-  .25+    180615 691  .03+  .86+    180617 807  .01-  .01-    
180614 J04  .25+  .67-    180615 568  .06+  .09-    

Ephemerides (geocentric):
Date (UTC) HH   RA              Dec         delta   r     elong  mag " sig PA
---- -- -- --  -------------   -----------  ------ ------ -----  --- ---- ---
2018 06 17 17  16 56 28.353   -23 15 18.02  .02745 1.0430 169.2 19.8  .37 174
2018 06 17 18  16 57 40.245   -23 17 41.23  .02728 1.0428 169.5 19.7  .39 171
2018 06 17 19  16 58 53.103   -23 20 04.18  .02710 1.0427 169.7 19.7  .42 169
2018 06 17 20  17 00 06.942   -23 22 26.82  .02693 1.0425 169.9 19.7  .44 167
2018 06 17 21  17 01 21.777   -23 24 49.08  .02676 1.0424 170.2 19.7  .47 165
2018 06 17 22  17 02 37.623   -23 27 10.90  .02659 1.0422 170.4 19.7  .50 163
2018 06 17 23  17 03 54.497   -23 29 32.21  .02642 1.0421 170.7 19.6  .53 162
2018 06 18 00  17 05 12.413   -23 31 52.94  .02625 1.0419 170.9 19.6  .56 160
2018 06 18 01  17 06 31.387   -23 34 13.02  .02608 1.0418 171.2 19.6  .59 158
2018 06 18 02  17 07 51.436   -23 36 32.38  .02592 1.0416 171.5 19.6  .62 157
2018 06 18 03  17 09 12.577   -23 38 50.93  .02575 1.0415 171.7 19.5  .66 155
2018 06 18 04  17 10 34.824   -23 41 08.59  .02558 1.0414 172.0 19.5  .69 154
2018 06 18 05  17 11 58.195   -23 43 25.28  .02542 1.0412 172.3 19.5  .73 153
2018 06 18 06  17 13 22.706   -23 45 40.90  .02525 1.0411 172.6 19.4  .77 151
2018 06 18 07  17 14 48.375   -23 47 55.36  .02509 1.0409 172.9 19.4  .81 150
2018 06 18 08  17 16 15.217   -23 50 08.56  .02493 1.0408 173.2 19.4  .85 149
2018 06 18 09  17 17 43.249   -23 52 20.41  .02477 1.0406 173.5 19.4  .89 148
2018 06 18 10  17 19 12.489   -23 54 30.79  .02461 1.0405 173.7 19.3  .93 147
2018 06 18 11  17 20 42.953   -23 56 39.60  .02445 1.0404 174.1 19.3  .98 146
2018 06 18 12  17 22 14.659   -23 58 46.72  .02429 1.0402 174.4 19.3  1.0 144
2018 06 18 13  17 23 47.624   -24 00 52.03  .02413 1.0401 174.7 19.2  1.1 143
2018 06 18 14  17 25 21.863   -24 02 55.41  .02397 1.0399 175.0 19.2  1.1 142
2018 06 18 15  17 26 57.396   -24 04 56.74  .02382 1.0398 175.3 19.2  1.2 141
2018 06 18 16  17 28 34.238   -24 06 55.87  .02366 1.0396 175.6 19.2  1.2 140
2018 06 18 17  17 30 12.406   -24 08 52.68  .02351 1.0395 175.9 19.1  1.3 140
2018 06 18 18  17 31 51.918   -24 10 47.01  .02336 1.0394 176.3 19.1  1.3 139
2018 06 18 19  17 33 32.789   -24 12 38.73  .02320 1.0392 176.6 19.1  1.4 138
2018 06 18 20  17 35 15.038   -24 14 27.68  .02305 1.0391 176.9 19.0  1.4 137
2018 06 18 21  17 36 58.679   -24 16 13.70  .02290 1.0389 177.3 19.0  1.5 136
2018 06 18 22  17 38 43.730   -24 17 56.63  .02275 1.0388 177.6 18.9  1.6 135
2018 06 18 23  17 40 30.207   -24 19 36.29  .02261 1.0387 177.9 18.9  1.6 134
2018 06 19 00  17 42 18.124   -24 21 12.53  .02246 1.0385 178.2 18.9  1.7 133
2018 06 19 01  17 44 07.498   -24 22 45.14  .02232 1.0384 178.5 18.8  1.8 133
2018 06 19 02  17 45 58.345   -24 24 13.96  .02217 1.0382 178.8 18.8  1.8 132
2018 06 19 03  17 47 50.677   -24 25 38.78  .02203 1.0381 178.9 18.8  1.9 131
2018 06 19 04  17 49 44.512   -24 26 59.42  .02189 1.0380 179.0 18.8  2.0 130
2018 06 19 05  17 51 39.861   -24 28 15.67  .02175 1.0378 178.9 18.8  2.0 129
2018 06 19 06  17 53 36.739   -24 29 27.31  .02161 1.0377 178.6 18.8  2.1 129
2018 06 19 07  17 55 35.158   -24 30 34.14  .02147 1.0376 178.3 18.8  2.2 128
2018 06 19 08  17 57 35.132   -24 31 35.94  .02134 1.0374 178.0 18.8  2.3 127
2018 06 19 09  17 59 36.671   -24 32 32.47  .02120 1.0373 177.6 18.8  2.4 127
2018 06 19 10  18 01 39.788   -24 33 23.52  .02107 1.0371 177.2 18.8  2.5 126
2018 06 19 11  18 03 44.491   -24 34 08.83  .02094 1.0370 176.8 18.8  2.5 125
2018 06 19 12  18 05 50.792   -24 34 48.18  .02080 1.0369 176.4 18.8  2.6 124
2018 06 19 13  18 07 58.698   -24 35 21.31  .02068 1.0367 176.0 18.8  2.7 124
2018 06 19 14  18 10 08.217   -24 35 47.96  .02055 1.0366 175.5 18.8  2.8 123
2018 06 19 15  18 12 19.358   -24 36 07.89  .02042 1.0365 175.1 18.9  2.9 122
2018 06 19 16  18 14 32.124   -24 36 20.82  .02030 1.0363 174.6 18.9  3.0 122